Hourly Data Report for June 05, 2003

SHERBROOKE A
QUEBEC

45°26'00.000" N
71°41'00.000" W
241.40 m
7028124
71610
YSC

Download Data

Hourly Data (June 2003)
Hourly Data Report for June 5, 2003
TIME
LST
Temp Definition
°C
Dew Point Definition
°C
Rel Hum Definition
%
Precip. Amount Definition
mm

Wind Dir Definition
10's deg

Wind Spd Definition
km/h
Visibility Definition
km
Stn Press Definition
kPa
Hmdx Definition


Wind Chill Definition


Weather Definition


00:00 9.2 4.7 73   8 9 15.0 98.37      
01:00 9.3 4.0 69   8 9 15.0 98.33      
02:00 6.1 3.6 84   8 6 15.0 98.30      
03:00 6.4 4.2 86   7 7 15.0 98.26      
04:00 6.8 4.2 83   7 6 15.0 98.25      
05:00 6.9 4.2 83   9 11 15.0 98.23      
06:00 9.6 6.2 79   7 6 15.0 98.18      
07:00 11.0 6.6 74   7 9 24.1 98.17     Cloudy
08:00 13.0 7.0 67   6 6 24.1 98.14     Mostly Cloudy
09:00 14.1 8.5 69   7 9 24.1 98.09     Cloudy
10:00 15.6 10.4 71   10 15 24.1 98.03     Cloudy
11:00 15.0 11.3 79   7 7 24.1 98.00     Cloudy
12:00 15.5 11.9 79   7 11 24.1 97.95     Mostly Cloudy
13:00 14.5 12.2 86   3 6 12.9 97.93     Rain Showers
14:00 15.6 13.0 85   5 6 24.1 97.83     Cloudy
15:00 16.7 12.9 78   8 9 24.1 97.76     Cloudy
16:00 15.7 13.4 86   28 7 6.4 97.77     Rain, Fog
17:00 14.5 13.8 96   22 4 8.0 97.78     Rain
18:00 14.4 13.6 95     0 12.9 97.70     Rain
19:00 13.9 13.4 97     0 12.9 97.67     Rain
20:00 13.6 13.2 97   26 9 9.7 97.68      
21:00 13.1 12.6 97   28 13 11.3 97.69     Rain
22:00 12.2 11.7 97   27 15 8.0 97.65     Drizzle
23:00 11.9 11.4 97   28 15 15.0 97.63      

Notes on Data Quality.

Legend

  • E = Estimated
  • M = Missing
  • NA = Not Available*
  • [empty] = Indicates an unobserved value
Date modified: